If you wish to contribute or participate in the discussions about articles you are invited to join SKYbrary as a registered user

 Actions

Angoon Seaplane Base

From SKYbrary Wiki

PAGN
Airport
ICAO: PAGN – IATA: AGN
Summary
Name Angoon Seaplane Base
Region North America
Territory Alaska US.gif
Location Angoon, Alaska
Serving Angoon
Type seaplane base
Coordinates 57° 30' 13.00" N, 134° 35' 6.00" W
Runways
Designator Length Width Surface ROPS
NW/SE 3048 m10,000 ft <br /> 274 m898.95 ft <br /> WATER /


METAR
Observation PAGN 151756Z AUTO 00000KT 10SM FEW003 OVC050 03/03 A2983 RMK AO2 SLP090 T00330028 10033 20011 53015
Station Angoon
Date/Time 15 October 2021 17:56:00
Wind direction
Wind speed 00 kts
Lowest cloud amount few clouds
Temperature 3.3°C
Dew point 2.8°C
Humidity 96%
QNH hPa
Weather condition n/a

Maps

Terrain

Loading map...

Airport Layout

Loading map...


Accidents & Serious Incidents at or in vicinity of PAGN

None on SKYbrary